Location: Dal�� Lhota
(48.7500°N, 14.0167°E)
Time: 07:45:11
(UTC+00:00)

Transit 2A - Pass Details

Date: 28 July 2021
Orbit: 594 x 964 km, 66.7° (Epoch: 24 September)

Event Time Altitude Azimuth Distance (km) Brightness Sun altitude
Rises 11:01:30 0° 318° (NW) 3,033 8.9 60.1°
Reaches altitude 10° 11:06:15 10° 0° (N) 2,225 8.2 60.1°
Maximum altitude 11:07:03 10° 9° (N) 2,222 8.2 60.1°
Drops below altitude 10° 11:07:50 10° 18° (NNE) 2,263 8.3 60.1°
Sets 11:12:59 0° 59° (ENE) 3,315 9.1 60.1°
